Location: Unspecified
(47.9110°N, 14.3980°E)
Time: 16:19:54
(UTC+00:00)

Cosmos 2333 Rocket - Pass Details

Date: 06 August 2020
Orbit: 837 x 864 km, 70.8° (Epoch: 18 September)

Event Time Altitude Azimuth Distance (km) Brightness Sun altitude
Rises 21:12:29 0° 336° (NNW) 3,456 6.9 -20.7°
Reaches altitude 10° 21:15:54 10° 357° (N) 2,516 5.6 -21.0°
Maximum altitude 21:19:36 17° 37° (NE) 2,052 4.5 -21.3°
Drops below altitude 10° 21:23:17 10° 77° (ENE) 2,507 4.5 -21.6°
Enters shadow 21:24:20 - 85° (E) 2,763 4.7 -21.6°
